User: anonymous   Login
Location: Unspecified
(0.0000°N, 0.0000°E)
Time: 15:22:16
(UTC+00:00)
Language:

OAO 2 - Orbit

View from above orbital plane
View from above orbital plane
View from above satellite
View from above satellite

Ground track
Ground track

The orbit data is extracted from the following two-line orbital elements,

1  3597U 68110A   18267.59431385 +.00000031 +00000-0 +14027-4 0  9994
2  3597 034.9946 322.3660 0005877 351.1690 008.8896 14.45813120624702
Epoch (UTC): 24 September 2018 14:15:48
Eccentricity: 0.0005877
inclination: 34.9946°
perigee height: 735 km
apogee height: 743 km
right ascension of ascending node: 322.3660°
argument of perigee: 351.1690°
revolutions per day: 14.45813120
mean anomaly at epoch: 8.8896°
orbit number at epoch: 62470

The dashed part of the orbit path shows where the satellite is in the earth's shadow,  

DLR